Skip Page Navigation
NASA JPL Caltech
NASA Logo - Jet Propulsion Laboratory + View the NASA Portal
+ Center for Near-Earth Object Studies
JPL Home Earth Solar System Stars & Galaxies Technology
JPL Solar System Dynamics
BODIES ORBITS EPHEMERIDES TOOLS PHYSICAL DATA DISCOVERY FAQ SITE MAP
JPL Small-Body Database Browser
Search: [ help ]  
134010 (2004 VW28)
Classification: Main-belt Asteroid          SPK-ID: 2134010
Ephemeris | Orbit Diagram | Orbital Elements | Mission Design | Physical Parameters | Discovery Circumstances ]

[ show orbit diagram ]
Orbital Elements at Epoch 2459000.5 (2020-May-31.0) TDB
Reference: JPL 10 (heliocentric ecliptic J2000)
 Element Value Uncertainty (1-sigma)   Units 
e .171529330420006 5.0007e-08  
a 2.35728594790374 1.3569e-08 au
q 1.952942267651323 1.1858e-07 au
i .3296322421158838 5.753e-06 deg
node 245.835158367329 0.0010341 deg
peri 168.5349842060369 0.0010342 deg
M 107.8293212124059 1.9018e-05 deg
tp 2458604.540106828416
(2019-May-01.04010683)
6.8314e-05 TDB
period 1321.955474995332
3.62
1.1415e-05
3.125e-08
d
yr
n .2723238466116048 2.3514e-09 deg/d
Q 2.761629628156158 1.5897e-08 au
  Orbit Determination Parameters
   # obs. used (total)      259  
   data-arc span      8066 days (22.08 yr)  
   first obs. used      1998-01-01  
   last obs. used      2020-02-01  
   planetary ephem.      DE431  
   SB-pert. ephem.      SB431-N16  
   condition code      0  
   norm. resid. RMS      .57202  
   source      ORB  
   producer      Otto Matic  
   solution date      2020-Feb-24 07:26:48  

Additional Information
 Earth MOID = .964361 au 
 Jupiter MOID = 2.58471 au 
 T_jup = 3.534 
[ show covariance matrix ]

Ephemeris | Orbit Diagram | Orbital Elements | Mission Design | Physical Parameters | Discovery Circumstances ]

Physical Parameter Table
Parameter Symbol Value Units Sigma Reference Notes
absolute magnitude H 17.0   n/a MPO453824  

134010 (2004 VW28)          Discovered 2004-Nov-07 by Young, J. W. at Wrightwood
Reference: 20060711/Numbers.arcLast Updated: 2006-07-17

Alternate Designations
 2004 VW28 = 1998 AQ1 
Ephemeris | Orbit Diagram | Orbital Elements | Mission Design | Physical Parameters | Discovery Circumstances ]
ABOUT SSD CREDITS/AWARDS PRIVACY/COPYRIGHT GLOSSARY LINKS
FirstGov 2020-Oct-27 13:31 UT
(server date/time)  
NASA Home Page
Site Manager:   Ryan S. Park
Webmaster  Alan B. Chamberlin